Voltar ao catálogo

TANSEI 3 DEB

AtivoUNKNOWN
NORAD 13133·DEBRIS·🇯🇵 Japan

Lançado Feb 19, 1977 de Uchinoura Space Center

Loading…

Próximas Passagens (próximas 24 horas)

TLE

AtualizadoSource: Space-Track

Época: Sep 11, 2026, 08:12 UTC

1 13133U 77012J   26254.34225633  .00000415  00000-0  12433-2 0  9990
2 13133  65.8427  15.9210 1650436 324.0656  25.9476 10.89526482953986

Acompanhe TANSEI 3 DEB em tempo real com AllMySat

Download on the App Store